sat.trackr.live / text

‹ back to catalog

FLOCK 4H-23

NORAD 66726 · 2025-276BN

PAYLOAD ACTIVE UNKNOWN

§ Identity

Operator
Country
US
Launch date
2025-11-28
Launch site
AFWTR
Launch vehicle
Mass (kg)
RCS (m²)

Purposes: earth_obs

External: N2YO · Heavens-Above · Gunter

§ Orbital elements

Epoch: 2026-09-20T03:20:55.156128Z

Period
94.69 min
Inclination
97.4161°
Eccentricity
0.0005104
Mean motion
15.20778379 rev/d
Perigee alt
500.0 km
Apogee alt
507.0 km
Semi-major
6,881.6 km
B*
2.1215e-4
RAAN
335.2183°
Arg perigee
42.4481°
Mean anomaly
317.7149°
Rev number
4,484

§ Raw data

FLOCK 4H-231 66726U 25276BN  26263.13952727  .00004606  00000+0  21215-3 0  99932 66726  97.4161 335.2183 0005104  42.4481 317.7149 15.20778379 44846

JSON: /api/v1/satellites/66726 · /tle

For live sub-satellite position, see the globe view (requires WebGL).

§ Visibility from observer

Set your observer location to see the next 7 days of passes ≥ 10°. The values pass through the URL so the page stays shareable.

No JS? Fill the form by hand. The geolocation button needs JavaScript.